[keps] orb06362.2l.amsat

Ray Hoad r.hoad at att.net
Thu Dec 28 18:05:07 PST 2006


SB KEPS @ AMSAT  $ORB06362.N
2Line Orbital Elements 06362.AMSAT

HR AMSAT ORBITAL ELEMENTS FOR AMATEUR SATELLITES IN NASA FORMAT
FROM WA5QGD FORT WORTH,TX December 28, 2006
Send SUBSCRIBE KEPS/UNSUBSCRIBE KEPS to majordomo at amsat.org only
BID: ORB06362.N

DECODE 2-LINE ELSETS WITH THE FOLLOWING KEY:
1 AAAAAU 00  0  0 BBBBB.BBBBBBBB  .CCCCCCCC  00000-0  00000-0 0  DDDZ
2 AAAAA EEE.EEEE FFF.FFFF GGGGGGG HHH.HHHH III.IIII JJ.JJJJJJJJKKKKKZ
KEY: A-CATALOGNUM B-EPOCHTIME C-DECAY D-ELSETNUM E-INCLINATION F-RAAN
G-ECCENTRICITY H-ARGPERIGEE I-MNANOM J-MNMOTION K-ORBITNUM Z-CHECKSUM

TO ALL RADIO AMATEURS BT

AO-07
1 07530U 74089B   06361.15857171 -.00000028  00000-0  10000-3 0 07650
2 07530 101.5413 039.0666 0012018 230.4020 129.5993 12.53572278469565
UO-11
1 14781U 84021B   06361.41111894  .00000038  00000-0  12524-4 0 02601
2 14781 098.2011 015.6877 0009447 010.4518 349.6934 14.79504227224334
RS-10/11
1 18129U 87054A   06362.86315697  .00000026  00000-0  11790-4 0  1810
2 18129 082.9236 184.1564 0010407 275.9318 084.0647 13.72782706977868
RS-15
1 23439U 94085A   06361.89624004 -.00000039  00000-0  10597-3 0  9994
2 23439 064.8202 283.9361 0164232 220.8954 137.9549 11.27551689494386
FO-29
1 24278U 96046B   06361.92860793 -.00000018  00000-0  16491-4 0 03997
2 24278 098.5257 339.7791 0350634 167.0901 193.9507 13.52926497511745
SO-33
1 25509U 98061B   06361.72656138  .00000089  00000-0  67432-5 0 08284
2 25509 031.4314 115.1253 0354607 008.3857 352.2450 14.28143781426724
VO-52
1 28650U 05017B   06361.66663169  .00000100  00000-0  19451-4 0 05163
2 28650 097.8526 071.0639 0028445 092.1794 268.2636 14.81240813089025
AO-16
1 20439U 90005D   06362.50181195 -.00000041  00000-0 -14075-6 0  9292
2 20439 098.1887 001.5362 0010876 341.1567 018.9209 14.31744930884125
LO-19
1 20442U 90005G   06361.59072236 -.00000098  00000-0 -21572-4 0  8591
2 20442 098.1819 010.1832 0011775 342.4611 017.6171 14.31986439884132
AO-27
1 22825U 93061C   06362.44541547  .00000055  00000-0  37708-4 0  5792
2 22825 098.3088 334.9861 0009340 049.4128 310.7884 14.29195004691108
IO-26
1 22826U 93061D   06361.61208461 -.00000002  00000-0  15491-4 0  2724
2 22826 098.3022 335.3323 0009888 049.8421 310.3623 14.29439768691062
PO-28
1 22829U 93061G   06361.51191386  .00000050  00000-0  35216-4 0  5556
2 22829 098.2912 336.4252 0010304 026.2810 333.8896 14.30137749691272
GO-32
1 25397U 98043D   06362.66303203 -.00000013  00000-0  12666-4 0  1925
2 25397 098.4412 052.1174 0001581 039.6713 320.4575 14.23117815439904
MO-46
1 26548U 00057D   06361.50895517  .00000034  00000-0  22420-4 0  6823
2 26548 064.5581 353.7567 0034528 220.2272 139.6285 14.83076415338075
NO-44
1 26931U 01043C   06361.67044731 -.00000226  00000-0 -56207-4 0 04842
2 26931 067.0516 229.3021 0004897 273.6872 086.3675 14.29465785273581
SO-50
1 27607U 02058C   06362.17005528 -.00000028  00000-0  17287-4 0  2041
2 27607 064.5577 244.2344 0036517 061.3772 299.1000 14.71213189215960
CO-55
1 27844U 03031E   06361.30732793  .00000063  00000-0  49822-4 0 09259
2 27844 098.7210 006.9527 0009312 223.8107 136.2326 14.20481581181075
CO-57
1 27848U 03031J   06362.43337801  .00000027  00000-0  33180-4 0  8898
2 27848 098.7177 007.3227 0009191 225.1389 134.9043 14.20304959181215
AO-51
1 28375U 04025K   06361.52064394  .00000049  00000-0  27687-4 0 07091
2 28375 098.1378 044.4667 0084698 343.1717 016.6663 14.40549552131007
CO-56
1 28941U 06005C   06362.80960976  .00018821  23701-5  21589-3 0  3076
2 28941 098.1559 040.6628 0252773 152.9793 208.4704 15.32691673 47279
HO-59
1 29484U 06041F   06362.79360039  .00029582  25953-5  25087-3 0  1309
2 29484 098.3112 023.2806 0255547 150.8574 210.7069 15.38114464 14773
RAFT
1 29661U 06055C   06362.85300733  .00036779  00000-0  16841-3 0   138
2 29661 051.6441 263.5083 0014383 054.3697 305.8639 15.83182844  1242
ANDE
1 29667U 06055J   06362.85676645  .00012485  00000-0  61991-4 0    70
2 29667 051.6346 263.5339 0017959 045.7747 314.4726 15.82245702   983
NOAA-10
1 16969U 86073A   06362.11624812 -.00000033  00000-0  48277-5 0  4767
2 16969 098.7546 014.1177 0011971 309.1330 050.8774 14.27313349 54828
NOAA-11
1 19531U 88089A   06362.27457274 -.00000094  00000-0 -25923-4 0  4486
2 19531 098.8194 088.5353 0011963 154.0446 206.1301 14.14831851941986
NOAA-12
1 21263U 91032A   06362.46232485 -.00000079  00000-0 -14685-4 0  9468
2 21263 098.7437 355.0659 0012174 241.6670 118.3309 14.25518903811922
MET-3/5
1 21655U 91056A   06361.93685191  .00000051  00000-0  10000-3 0 02069
2 21655 082.5540 123.9373 0012425 278.9796 080.9920 13.17009049738869
MET-2/21
1 22782U 93055A   06362.56073171 -.00000029  00000-0 -39330-4 0  7072
2 22782 082.5471 177.2642 0022591 358.7859 001.3233 13.83613836672923
OKEAN-4
1 23317U 94066A   06361.47006562  .00000293  00000-0  33354-4 0 01434
2 23317 082.5401 096.7361 0023891 097.8131 262.5758 14.82449260658613
NOAA-14
1 23455U 94089A   06361.66155607  .00000141  00000-0  98502-4 0 04383
2 23455 099.0144 061.7521 0009140 221.1305 138.9192 14.13688268618407
SICH-1
1 23657U 95046A   06361.46055896  .00000274  00000-0  31773-4 0 09477
2 23657 082.5273 237.6359 0025643 087.5442 272.8706 14.81435318610600
NOAA-15
1 25338U 98030A   06361.66153034  .00000084  00000-0  54319-4 0 08059
2 25338 098.5248 358.2496 0010864 165.8004 194.3460 14.24619004448261
RESURS
1 25394U 98043A   06362.69150342  .00000023  00000-0  28199-4 0  5347
2 25394 098.4683 058.7575 0001452 003.5532 356.5656 14.24123154440089
FENGYUN1
1 25730U 99025A   06361.59822689  .00000164  00000-0  11279-3 0 09159
2 25730 098.6432 346.9873 0013986 312.6924 047.3072 14.11820305393301
OKEAN-0
1 25860U 99039A   06361.62408522  .00000078  00000-0  19182-4 0 09390
2 25860 097.7295 006.9102 0000827 111.9594 248.1700 14.73418510400232
NOAA-16
1 26536U 00055A   06362.39462633  .00000276  00000-0  17440-3 0  2059
2 26536 099.0949 331.5633 0009999 295.6989 064.3152 14.12395173322994
NOAA-17
1 27453U 02032A   06361.63505784  .00000076  00000-0  52072-4 0 02224
2 27453 098.6023 069.8936 0011313 229.5388 130.4802 14.23840454234303
NOAA-18
1 28654U 05018A   06361.65396476 -.00000009  00000-0  19213-4 0 07753
2 28654 098.8115 300.9831 0014941 036.0658 324.1485 14.11022877082662
HUBBLE
1 20580U 90037B   06362.89970543  .00000373  00000-0  16164-4 0  7708
2 20580 028.4676 220.4846 0003683 091.5333 268.5680 15.00166472714368
UARS
1 21701U 91063B   06362.90441905  .00004208  00000-0  79537-4 0  9572
2 21701 056.9774 331.8102 0093924 220.7141 138.6869 15.46208650839393
PO-34
1 25520U 98064B   06361.92300268  .00000446  00000-0  12321-4 0 06531
2 25520 028.4593 174.9158 0005824 186.5711 173.4812 15.16888214451493
ISS
1 25544U 98067A   06363.03343138  .00016273  00000-0  10257-3 0  3444
2 25544 051.6356 263.0105 0023633 031.1720 069.5322 15.76474692463906
OO-38
1 26063U 00004C   06361.60367251 -.00000013  00000-0  16012-4 0 08029
2 26063 100.2114 327.6531 0036604 282.8800 076.8284 14.35790801362433
NO-45
1 26932U 01043D   06362.86384993 -.00000033  00000-0  19251-4 0  4902
2 26932 067.0541 225.9663 0003358 253.4310 106.6423 14.29545413273795
UWE-1
1 28892U 05043C   06362.43288824  .00000277  00000-0  68034-4 0  6399
2 28892 098.1466 257.2931 0016538 287.3756 072.5631 14.59446732 62305
CO-58
1 28895U 05043F   06361.66316321  .00000222  00000-0  56422-4 0  6208
2 28895 098.1479 256.6855 0016866 289.5547 070.3816 14.59495990 62071
NCUBE2
1 28897U 05043H   06361.68827195  .00000216  00000-0  55065-4 0 01635
2 28897 098.1469 256.6789 0016578 291.9909 067.9512 14.59654493054359
NMARS
1 29662U 06055D   06362.91662814  .00042681  00000-0  19502-3 0   133
2 29662 051.6436 263.1823 0014932 050.0023 310.2247 15.83142814  1148
FCAL
1 29664U 06055F   06361.97291287  .00018518  00000-0  90546-4 0 00097
2 29664 051.6347 268.1345 0017593 040.8891 319.3421 15.82165714000978
/EX






More information about the Keps mailing list